                ,  0.304,  0.404,  0.504,  0.604,  0.704,  0.804,  0.904,  1.004,  1.104,  1.204,  1.304,  1.404,  1.504,  1.604,  1.704,  1.804,  1.904,  2.004,  2.104,  2.204,  2.304,  2.404,  2.504,  2.604,  2.704,  2.804,  2.904,  3.004,  3.104,  3.204,  3.304,  3.404,  3.504,  3.604,  3.704,  3.804,  3.904,  4.004,  4.104,  4.204,  4.304,  4.404,  4.504,  4.604,  4.704,  4.804,  4.904,  5.004,  5.104,  5.204,  5.304,  5.404,  5.504,  5.604,  5.704,  5.804,  5.904,  6.004,  6.104,  6.204,  6.304,  6.404,  6.504,  6.604,  6.704,  6.804,  6.904,  7.004,  7.104,  7.204,  7.304,  7.404,  7.504,  7.604,  7.704,  7.804,  7.904,  8.004,  8.104,  8.204
2011/10/15 00:00,   -3.8,   -5.0,   -5.0,   -5.0,   -5.2,   -5.2,   -5.4,   -5.4,   -5.3,   -5.4,   -5.5,   -5.5,   -5.4,   -5.2,   -5.1,   -5.0,   -4.9,   -4.8,   -4.7,   -4.5,   -4.6,   -4.4,   -4.4,   -4.3,   -4.3,   -4.2,   -4.2,   -4.1,   -4.2,   -4.2,   -4.1,   -4.2,   -4.2,   -4.0,   -4.2,   -3.7,   -2.5,   -1.7,   -1.3,   -1.2,   -1.0,   -1.0,   -1.0,   -0.9,   -0.8,   -0.9,   -0.7,   -0.5,   -0.3,   -0.4,   -0.3,   -0.3,   -0.2,   -0.1,   -0.0,   -0.0,    0.0,   -0.0,   -0.0,   -0.0,   -0.0,    0.0,    0.1,   -0.0,   -0.0,   -0.0,   -0.0,   -0.0,   -0.0,   -0.0,   -0.0,    0.0,    0.0,    0.0,   -0.0,   -0.0,    0.0,    0.1,    0.0,   -0.1
2011/10/15 00:10,   -4.7,   -5.2,   -5.3,   -5.5,   -5.5,   -5.7,   -5.8,   -5.8,   -5.8,   -6.0,   -6.0,   -5.9,   -5.9,   -5.9,   -5.9,   -5.9,   -6.0,   -6.1,   -6.0,   -5.9,   -5.8,   -5.7,   -5.4,   -5.5,   -5.8,   -5.6,   -5.9,   -6.0,   -6.2,   -6.2,   -6.4,   -6.6,   -6.5,   -6.3,   -6.0,   -4.6,  999.0,  999.0,   -1.6,   -1.4,   -1.2,   -1.1,   -1.1,   -1.0,   -0.9,   -0.9,   -1.0,   -0.9,   -0.9,   -0.8,   -0.7,   -0.8,   -0.7,   -0.6,   -0.4,   -0.3,   -0.2,   -0.2,   -0.1,   -0.1,   -0.1,   -0.0,   -0.0,    0.0,    0.0,    0.0,    0.0,   -0.1,   -0.0,    0.0,   -0.0,   -0.0,   -0.0,    0.0,    0.0,   -0.0,  999.0,    0.0,    0.0,    0.0
2011/10/15 00:20,   -5.1,   -5.3,   -5.6,   -5.7,   -5.8,   -5.8,   -5.9,   -5.9,   -5.9,   -5.8,   -5.9,   -5.9,   -5.8,   -5.6,   -5.6,   -5.5,   -5.4,   -5.3,   -5.3,   -5.2,   -5.3,   -5.2,   -5.1,   -5.2,   -5.2,   -5.2,   -5.2,   -5.0,   -5.1,   -5.3,   -5.4,   -5.4,   -5.7,   -5.6,   -5.5,   -4.6,   -2.7,   -1.9,   -1.5,   -1.3,   -1.3,   -1.1,   -1.1,   -1.0,   -1.0,   -1.0,   -1.1,   -1.1,   -1.0,   -1.0,   -1.0,   -0.9,   -0.9,   -0.8,   -0.7,   -0.6,   -0.5,   -0.5,   -0.4,   -0.4,   -0.4,   -0.2,   -0.2,   -0.0,   -0.0,   -0.0,   -0.1,   -0.0,   -0.0,   -0.1,   -0.0,    0.0,    0.1,    0.0,    0.1,    0.0,   -0.1,    0.0,    0.0,  999.0
2011/10/15 00:30,   -4.5,   -5.3,   -5.3,   -5.3,   -5.3,   -5.3,   -5.3,   -5.4,   -5.4,   -5.4,   -5.4,   -5.4,   -5.3,   -5.3,   -5.2,   -5.1,   -5.1,   -5.0,   -5.0,   -5.0,   -4.9,   -4.9,   -5.0,   -4.8,   -4.8,   -4.8,   -5.0,   -4.8,   -4.9,   -5.0,   -5.0,   -5.4,   -5.6,   -5.4,   -5.8,   -4.6,   -2.9,  999.0,   -1.4,   -1.4,   -1.3,   -1.2,   -1.2,   -1.2,   -1.1,   -1.2,   -1.2,   -1.1,   -1.0,   -1.0,   -1.0,   -1.0,   -0.8,   -0.8,   -0.7,   -0.5,   -0.4,   -0.4,   -0.4,   -0.4,   -0.4,   -0.2,   -0.1,   -0.0,   -0.0,   -0.1,   -0.0,   -0.0,   -0.1,   -0.2,   -0.0,   -0.1,   -0.1,   -0.1,   -0.1,   -0.2,    0.0,   -0.3,   -0.1,   -0.2
2011/10/15 00:40,   -4.8,   -5.2,   -5.3,   -5.3,   -5.2,   -5.3,   -5.3,   -5.5,   -5.6,   -5.4,   -5.7,   -5.6,   -5.7,   -5.6,   -5.5,   -5.4,   -5.4,   -5.5,   -5.3,   -5.3,   -5.3,   -5.2,   -5.2,   -5.1,   -5.0,   -4.9,   -4.8,   -4.6,   -4.6,   -4.7,   -4.8,   -4.8,   -5.2,   -5.2,   -5.5,   -4.8,   -3.2,  999.0,   -1.4,   -1.3,   -1.1,   -1.0,   -1.0,   -0.9,   -0.8,   -0.9,   -0.8,   -0.8,   -0.8,   -0.8,   -0.7,   -0.6,   -0.4,   -0.2,   -0.1,   -0.1,   -0.0,   -0.1,   -0.1,   -0.1,   -0.1,   -0.0,   -0.0,   -0.0,   -0.0,   -0.0,   -0.0,   -0.1,   -0.1,   -0.2,   -0.1,   -0.1,   -0.1,   -0.2,   -0.1,   -0.2,   -0.4,   -0.4,   -0.3,   -0.3
2011/10/15 00:50,   -5.7,   -6.0,   -6.0,   -6.0,   -6.0,   -5.9,   -6.0,   -6.0,   -5.9,   -6.0,   -6.1,   -6.0,   -6.0,   -5.9,   -5.9,   -5.9,   -5.9,   -6.0,   -5.9,   -5.9,   -5.8,   -5.7,   -5.8,   -5.6,   -5.6,   -5.5,   -5.5,   -5.5,   -5.5,   -5.4,   -5.3,   -5.7,   -5.6,   -5.4,   -5.7,   -5.1,   -3.4,  999.0,   -1.3,   -1.1,   -1.0,   -0.9,   -0.8,   -0.7,   -0.6,   -0.5,   -0.6,   -0.5,   -0.4,   -0.4,   -0.4,   -0.4,   -0.3,   -0.1,   -0.2,   -0.0,   -0.0,   -0.1,   -0.1,   -0.2,   -0.2,   -0.1,   -0.1,   -0.1,   -0.0,   -0.1,   -0.2,   -0.3,   -0.3,   -0.4,   -0.4,   -0.3,   -0.4,   -0.3,   -0.3,   -0.2,   -0.5,   -0.4,   -0.5,   -0.4
2011/10/15 01:00,   -5.6,   -5.8,   -5.9,   -5.8,   -5.8,   -5.8,   -5.9,   -5.8,   -5.8,   -5.7,   -5.8,   -5.9,   -5.9,   -6.0,   -6.0,   -6.0,   -5.9,   -5.9,   -6.0,   -6.0,   -5.9,   -5.9,   -5.8,   -5.6,   -5.6,   -5.4,   -5.4,   -5.5,   -5.5,   -6.0,   -6.0,   -6.1,   -6.3,   -6.3,   -6.2,   -5.7,   -4.5,  999.0,  999.0,   -1.1,   -0.9,   -0.8,   -0.8,   -0.7,   -0.6,   -0.6,   -0.6,   -0.6,   -0.6,   -0.5,   -0.5,   -0.4,   -0.3,   -0.2,   -0.1,   -0.1,   -0.1,   -0.1,   -0.1,   -0.1,   -0.2,   -0.0,   -0.0,   -0.0,   -0.0,    0.0,   -0.0,   -0.0,    0.0,   -0.0,    0.0,    0.0,    0.1,    0.1,   -0.0,   -0.1,   -0.1,   -0.3,   -0.1,   -0.2
2011/10/15 01:10,   -5.3,   -5.7,   -5.9,   -6.0,   -5.8,   -5.8,   -5.9,   -5.7,   -5.7,   -5.7,   -5.6,   -5.7,   -5.8,   -5.8,   -5.7,   -5.6,   -5.6,   -5.5,   -5.5,   -5.4,   -5.3,   -5.1,   -5.2,   -5.1,   -4.8,   -4.9,   -4.8,   -4.9,   -4.6,   -4.9,   -4.9,   -4.9,  999.0,   -5.3,   -5.7,   -5.5,   -3.9,  999.0,  999.0,   -0.8,   -0.9,   -0.8,   -0.8,   -0.7,   -0.7,   -0.6,   -0.5,   -0.6,   -0.5,   -0.5,   -0.4,   -0.4,   -0.3,   -0.3,   -0.3,   -0.2,   -0.2,   -0.2,   -0.2,   -0.2,   -0.2,   -0.1,   -0.0,   -0.1,   -0.0,    0.0,   -0.0,    0.0,    0.0,   -0.0,    0.0,   -0.0,   -0.0,    0.0,   -0.0,    0.0,   -0.1,   -0.0,   -0.0,   -0.0
2011/10/15 01:20,   -4.4,   -4.8,   -4.9,   -5.0,   -4.9,   -4.9,   -4.9,   -4.8,   -4.8,   -4.7,   -4.7,   -4.8,   -4.7,   -4.6,   -4.5,   -4.5,   -4.5,   -4.4,   -4.2,   -4.2,   -4.1,   -3.9,   -3.7,   -3.6,   -3.4,   -3.4,   -3.2,   -3.1,   -2.9,   -2.7,   -2.7,   -2.6,   -2.8,   -2.4,   -2.3,   -2.5,   -2.5,   -1.7,   -1.0,   -0.5,   -0.3,   -0.2,   -0.2,   -0.1,   -0.1,   -0.1,   -0.1,   -0.1,   -0.0,   -0.0,   -0.0,   -0.1,   -0.0,   -0.0,   -0.0,    0.0,    0.0,    0.0,    0.0,    0.0,    0.0,    0.0,    0.0,    0.0,   -0.0,   -0.0,    0.0,    0.0,   -0.0,    0.0,    0.0,    0.0,   -0.0,    0.1,    0.0,    0.0,   -0.1,   -0.0,   -0.1,   -0.1
2011/10/15 01:30,  999.0,   -4.6,   -4.6,   -4.8,   -4.9,   -4.8,   -4.8,   -4.7,   -4.8,   -4.7,   -4.7,   -4.6,   -4.6,   -4.5,   -4.4,   -4.3,   -4.2,   -4.0,   -3.8,   -3.7,   -3.6,   -3.4,   -3.3,   -3.3,   -3.1,   -3.0,   -2.8,   -2.8,   -2.7,   -2.6,   -2.5,   -2.5,   -2.3,   -2.4,   -2.4,   -2.6,   -2.6,   -1.7,   -0.9,   -0.5,   -0.3,   -0.3,   -0.3,   -0.1,   -0.1,   -0.1,   -0.1,   -0.1,   -0.1,   -0.1,   -0.1,   -0.0,   -0.0,   -0.0,   -0.0,   -0.0,    0.0,    0.0,    0.0,    0.0,    0.1,   -0.0,   -0.0,   -0.0,    0.0,    0.0,    0.0,   -0.0,   -0.0,   -0.0,   -0.0,   -0.1,   -0.2,   -0.2,   -0.2,   -0.3,   -0.3,   -0.3,   -0.4,   -0.4
2011/10/15 01:40,   -5.3,   -5.8,   -5.9,   -6.0,   -6.0,   -6.0,   -6.0,   -6.1,   -6.1,   -6.0,   -5.8,   -5.8,   -5.7,   -5.7,   -5.6,   -5.6,   -5.6,   -5.3,   -5.3,   -5.3,   -5.2,   -5.1,   -4.9,   -4.9,   -4.8,   -4.7,   -4.6,   -4.3,   -4.5,   -4.5,   -4.6,   -4.7,   -4.6,   -5.1,   -4.7,   -5.0,   -3.9,   -2.0,   -1.3,   -0.9,   -0.8,   -0.8,   -0.7,   -0.6,   -0.5,   -0.5,   -0.5,   -0.5,   -0.4,   -0.5,   -0.4,   -0.4,   -0.4,   -0.3,   -0.3,   -0.2,   -0.3,   -0.3,   -0.3,   -0.2,   -0.3,   -0.2,   -0.2,   -0.2,   -0.1,   -0.1,   -0.2,   -0.2,   -0.3,   -0.3,   -0.3,   -0.4,   -0.4,   -0.4,   -0.5,   -0.4,   -0.4,   -0.4,   -0.4,   -0.2
2011/10/15 01:50,   -5.3,   -5.9,   -5.9,   -5.8,   -5.7,   -5.9,   -6.0,   -5.9,   -6.0,   -5.9,   -6.0,   -6.0,   -6.1,   -6.2,   -6.2,   -6.0,   -5.8,   -5.7,   -5.6,   -5.6,   -5.4,   -5.5,   -5.5,   -5.4,   -5.4,   -5.3,   -5.1,   -5.2,   -5.6,   -5.2,   -5.3,   -5.4,   -5.5,   -5.9,   -6.0,   -4.8,   -2.5,  999.0,   -0.9,   -0.8,   -0.7,   -0.6,   -0.5,   -0.4,   -0.3,   -0.3,   -0.4,   -0.3,   -0.2,   -0.3,   -0.3,   -0.3,   -0.3,   -0.3,   -0.2,   -0.2,   -0.2,   -0.4,   -0.3,   -0.3,   -0.4,   -0.3,   -0.3,   -0.3,   -0.2,   -0.4,   -0.4,   -0.5,   -0.5,   -0.5,   -0.4,   -0.4,   -0.4,   -0.3,   -0.3,   -0.3,   -0.2,   -0.3,   -0.3,   -0.2
2011/10/15 02:00,  999.0,   -5.1,   -5.3,   -5.3,   -5.4,   -5.4,   -5.5,   -5.5,   -5.6,   -5.7,   -5.6,   -5.8,   -5.8,   -5.7,   -5.7,   -5.6,   -5.3,   -5.3,   -5.1,   -4.9,   -4.7,   -4.4,   -4.3,   -4.2,   -4.1,   -3.9,   -3.8,   -3.8,   -3.7,   -3.7,   -3.7,   -3.7,   -3.6,   -3.6,   -3.7,   -3.6,   -2.6,   -1.6,   -0.8,   -0.6,   -0.5,   -0.4,   -0.2,   -0.2,   -0.2,   -0.1,   -0.1,   -0.1,   -0.0,   -0.1,   -0.1,   -0.2,   -0.2,   -0.1,   -0.1,   -0.1,   -0.1,   -0.2,   -0.2,   -0.2,   -0.2,   -0.1,   -0.0,   -0.1,   -0.0,   -0.0,   -0.1,   -0.1,   -0.1,   -0.2,   -0.1,   -0.0,   -0.1,   -0.1,   -0.1,   -0.2,   -0.1,   -0.1,   -0.0,   -0.2
2011/10/15 02:10,   -4.3,   -4.7,   -4.8,   -4.8,   -4.8,   -4.8,   -4.9,   -5.0,   -4.9,   -4.9,   -5.1,   -5.0,   -5.0,   -5.0,   -5.1,   -5.1,   -5.1,   -5.0,   -5.0,   -4.9,   -5.0,   -4.9,   -4.8,   -4.6,   -4.6,   -4.4,   -4.4,   -4.4,   -4.2,   -4.3,   -4.2,   -4.3,   -4.3,   -4.2,   -4.3,   -4.8,   -2.3,   -1.3,   -0.7,   -0.6,   -0.7,   -0.7,   -0.7,   -0.4,   -0.4,   -0.5,   -0.5,   -0.4,   -0.5,   -0.5,   -0.5,   -0.4,   -0.3,   -0.3,   -0.3,   -0.3,   -0.3,   -0.4,   -0.4,   -0.4,   -0.3,   -0.2,   -0.2,   -0.1,   -0.0,   -0.1,   -0.1,   -0.1,   -0.1,   -0.1,   -0.0,   -0.0,   -0.1,    0.0,    0.0,    0.0,   -0.0,   -0.1,   -0.0,  999.0
2011/10/15 02:20,   -4.5,   -4.7,   -4.9,   -4.8,   -4.9,   -4.9,   -5.2,   -5.3,   -5.3,   -5.4,   -5.5,   -5.3,   -5.3,   -5.1,   -5.0,   -4.9,   -4.7,   -4.5,   -4.4,   -4.2,   -4.3,   -4.1,   -4.2,   -3.6,   -3.4,   -3.4,   -3.5,   -3.4,   -3.4,   -3.3,   -3.0,   -3.1,   -3.0,   -2.8,   -3.0,   -2.7,   -2.3,   -1.9,   -0.5,   -0.2,   -0.1,   -0.1,   -0.1,   -0.0,   -0.0,   -0.0,   -0.0,   -0.1,   -0.0,   -0.0,   -0.0,   -0.0,   -0.0,   -0.0,    0.0,    0.0,   -0.0,   -0.0,    0.0,   -0.0,   -0.1,   -0.0,   -0.0,    0.0,   -0.0,   -0.0,   -0.0,    0.0,   -0.0,   -0.0,   -0.0,   -0.0,   -0.0,    0.0,    0.0,    0.0,  999.0,  999.0,    0.0,  999.0
2011/10/15 02:30,   -5.4,   -5.8,   -5.9,   -5.9,   -5.9,   -6.1,   -5.9,   -6.1,   -6.2,   -6.3,   -6.2,   -6.1,   -5.8,   -5.8,   -5.7,   -5.5,   -5.5,   -5.2,   -5.1,   -4.9,   -4.7,   -4.5,   -4.3,   -4.2,   -4.0,   -3.9,   -3.8,   -3.7,   -3.7,   -3.6,   -3.5,   -3.5,   -3.4,   -3.5,   -3.6,   -3.8,   -3.3,   -2.2,   -0.9,   -0.6,   -0.5,   -0.4,   -0.4,   -0.3,   -0.3,   -0.3,   -0.3,   -0.2,   -0.1,   -0.1,   -0.0,   -0.0,   -0.0,   -0.0,   -0.0,   -0.0,   -0.0,    0.0,    0.0,    0.0,    0.0,   -0.0,   -0.0,   -0.0,   -0.0,   -0.0,    0.0,    0.0,    0.0,   -0.0,   -0.0,    0.0,    0.0,    0.0,   -0.1,   -0.0,   -0.0,   -0.1,    0.0,  999.0
2011/10/15 02:40,   -5.3,   -5.4,   -5.5,   -5.4,   -5.4,   -5.5,   -5.6,   -5.7,   -5.7,   -5.8,   -5.6,   -5.8,   -5.6,   -5.7,   -5.7,   -5.9,   -6.0,   -6.0,   -5.8,   -5.9,   -5.8,   -5.6,   -5.6,   -5.5,   -5.4,   -5.1,   -5.1,   -5.0,   -4.9,   -4.8,   -4.8,   -4.7,   -4.5,   -4.8,   -4.8,   -4.9,   -4.4,   -3.1,  999.0,   -0.7,   -0.6,   -0.6,   -0.5,   -0.4,   -0.3,   -0.3,   -0.2,   -0.2,   -0.1,    0.0,    0.0,    0.1,    0.1,    0.1,    0.1,    0.1,    0.0,    0.1,    0.0,    0.0,    0.0,   -0.0,   -0.0,   -0.0,   -0.0,    0.0,   -0.0,   -0.0,    0.0,    0.0,   -0.0,   -0.0,    0.0,    0.0,    0.0,   -0.0,  999.0,    0.0,    0.1,  999.0
2011/10/15 02:50,   -5.6,   -5.7,   -5.7,   -6.0,   -6.1,   -6.2,   -6.3,   -6.5,   -6.5,   -6.5,   -7.1,   -7.0,   -7.0,   -6.9,   -6.8,   -6.9,   -6.9,   -6.9,   -6.7,   -6.5,   -6.4,   -6.4,   -6.3,   -6.1,   -6.1,   -6.0,   -6.0,   -4.9,   -4.3,   -4.7,   -4.6,   -4.5,   -4.6,   -4.1,   -4.1,   -4.9,   -3.9,  999.0,  999.0,   -1.2,   -1.0,   -0.9,   -0.7,   -0.6,   -0.5,   -0.4,   -0.4,   -0.3,   -0.3,   -0.3,   -0.3,   -0.3,   -0.2,   -0.1,   -0.1,   -0.0,    0.0,    0.1,    0.0,    0.0,    0.0,    0.0,   -0.0,    0.0,   -0.0,   -0.0,    0.0,    0.0,    0.0,    0.1,    0.0,    0.0,    0.1,    0.1,    0.1,   -0.0,    0.0,    0.0,    0.0,  999.0
2011/10/15 03:00,   -4.9,   -5.0,   -5.0,   -5.1,   -5.2,   -5.2,   -5.3,   -5.4,   -5.6,   -5.7,   -6.1,   -6.0,   -5.9,   -5.9,   -6.0,   -5.7,   -5.8,   -5.5,   -5.1,   -4.9,   -4.6,   -4.5,   -4.7,   -4.6,   -4.4,   -4.6,   -4.4,   -4.3,   -3.6,   -3.7,   -3.7,   -3.0,   -3.2,   -2.9,   -2.7,   -2.7,   -2.4,   -1.8,   -1.1,   -0.6,   -0.2,   -0.2,   -0.1,   -0.1,    0.0,   -0.0,   -0.0,    0.0,    0.0,   -0.0,    0.0,   -0.0,    0.0,    0.0,    0.0,   -0.0,    0.0,    0.0,    0.0,    0.0,    0.1,    0.0,   -0.0,   -0.0,    0.0,    0.0,   -0.0,    0.0,    0.0,    0.0,   -0.0,    0.0,   -0.0,   -0.0,   -0.0,   -0.0,    0.1,  999.0,  999.0,   -0.0
2011/10/15 03:10,   -4.8,   -5.4,   -4.4,   -5.6,   -4.6,   -4.5,   -4.5,   -4.6,   -4.6,   -6.1,   -5.3,   -6.1,   -5.1,   -5.0,   -5.3,   -5.4,   -5.3,   -5.2,   -5.0,   -4.9,   -4.9,   -4.9,   -4.8,   -4.5,   -4.5,   -4.3,   -4.4,   -4.3,   -4.2,   -4.1,   -4.2,   -3.8,   -3.8,   -3.8,   -3.5,   -3.5,   -3.7,   -2.9,   -1.6,   -0.7,   -0.5,   -0.4,   -0.4,   -0.1,   -0.1,   -0.1,   -0.1,   -0.1,   -0.1,   -0.1,   -0.2,   -0.1,   -0.0,   -0.0,    0.0,    0.0,    0.0,    0.0,    0.0,    0.0,    0.1,    0.0,   -0.0,   -0.0,    0.0,    0.0,    0.0,   -0.0,   -0.0,   -0.0,   -0.0,   -0.0,    0.0,    0.0,    0.1,   -0.0,    0.0,   -0.1,   -0.0,    0.0
